Weather History for KFAR - April, 2013

Change the Weather History Date:

Wednesday, April 10, 2013

  Actual Average Record
Temperature  
Mean Temperature 28 °F 41 °F  
Max Temperature 35 °F 53 °F 85 °F (1910)
Min Temperature 21 °F 30 °F 9 °F (1973)
Degree Days  
Heating Degree Days 37 24  
Month to date heating degree days 373 262  
Since 1 July heating degree days 8434 8092  
Cooling Degree Days 0 0  
Month to date cooling degree days 0 0  
Year to date cooling degree days 0 0  
Moisture  
Dew Point 20 °F    
Average Humidity 70    
Maximum Humidity 77    
Minimum Humidity 63    
Precipitation  
Precipitation 0.00 in 0.03 in 2.00 in (1902)
Month to date precipitation 0.55 0.39  
Year to date precipitation 4.18 3.00  
Snow  
Snow 0.00 in 0.10 in 6.00 in (2000)
Month to date snowfall 0.2 1.3  
Since 1 July snowfall 51.9 48.4  
Snow Depth 5.00 in    
Sea Level Pressure  
Sea Level Pressure 30.23 in    
Wind  
Wind Speed 13 mph (North)    
Max Wind Speed 20 mph    
Max Gust Speed 24 mph    
Visibility 10 miles    
Events      
T = Trace of Precipitation, MM = Missing Value Source: NWS Daily Summary

Daily Weather History Graph

Daily Weather History Graph

Search for Another Location

Airport or City:

Trip Planner

Search our weather history database for the weather conditions in past years. The results will help you decide how hot, cold, wet, or windy it might be!

Date:

Astronomy

Apr. 10, 2013 Rise Set
Actual Time 6:48 AM CDT 8:09 PM CDT
Civil Twilight 6:17 AM CDT 8:40 PM CDT
Nautical Twilight 5:39 AM CDT 9:18 PM CDT
Astronomical Twilight 4:58 AM CDT 9:59 PM CDT
Moon 6:43 AM CDT (4/10) 8:50 PM CDT (4/10)
Length of Visible Light 14h 23m
Length of Day
13h 20m
New Moon, 0% of the Moon is Illuminated
Apr 10
New Moon
Apr 18
First Quarter
Apr 25
Full
May 2
Last Quarter
May 9
New

Hourly Weather History & Observations

Time (CDT) Temp. Windchill Dew Point Humidity Pressure Visibility Wind Dir Wind Speed Gust Speed Precip Events Conditions
12:53 AM 25.0 °F 13.1 °F 16.0 °F 69% 30.34 in 10.0 mi North 13.8 mph - N/A   Mostly Cloudy
1:31 AM 24.8 °F 13.4 °F 17.6 °F 74% 30.34 in 10.0 mi North 12.7 mph - N/A   Partly Cloudy
1:53 AM 24.1 °F 12.0 °F 16.0 °F 71% 30.40 in 10.0 mi North 13.8 mph - N/A   Clear
2:53 AM 24.1 °F 12.0 °F 16.0 °F 71% 30.37 in 10.0 mi North 13.8 mph - N/A   Clear
3:53 AM 23.0 °F 10.1 °F 15.1 °F 72% 30.28 in 10.0 mi NNE 15.0 mph 23.0 mph N/A   Clear
4:53 AM 21.9 °F 9.2 °F 15.1 °F 75% 30.24 in 10.0 mi NNE 13.8 mph - N/A   Clear
5:53 AM 21.0 °F 10.6 °F 14.0 °F 74% 30.25 in 10.0 mi North 9.2 mph - N/A   Clear
6:53 AM 21.9 °F 11.7 °F 15.1 °F 75% 30.30 in 10.0 mi NNW 9.2 mph - N/A   Overcast
7:53 AM 21.9 °F 9.2 °F 16.0 °F 78% 30.32 in 10.0 mi North 13.8 mph - N/A   Overcast
8:53 AM 24.1 °F 12.5 °F 16.0 °F 71% 30.31 in 10.0 mi North 12.7 mph - N/A   Scattered Clouds
9:53 AM 27.0 °F 16.1 °F 17.1 °F 66% 30.29 in 10.0 mi North 12.7 mph - N/A   Mostly Cloudy
10:53 AM 28.0 °F 18.1 °F 18.0 °F 66% 30.28 in 10.0 mi North 11.5 mph - N/A   Overcast
11:53 AM 28.4 °F 18.5 °F 19.4 °F 69% 30.23 in 10.0 mi NNE 11.5 mph - N/A   Overcast
12:53 PM 30.9 °F 22.2 °F 19.9 °F 64% 30.26 in 10.0 mi North 10.4 mph - N/A   Overcast
1:53 PM 33.1 °F 23.4 °F 23.0 °F 66% 30.23 in 10.0 mi North 13.8 mph - N/A   Overcast
2:53 PM 34.0 °F 24.2 °F 24.1 °F 67% 30.22 in 10.0 mi North 15.0 mph - N/A   Overcast
3:53 PM 34.0 °F 23.4 °F 24.1 °F 67% 30.20 in 10.0 mi North 17.3 mph - N/A   Overcast
4:53 PM 35.1 °F 25.9 °F 25.0 °F 67% 30.17 in 10.0 mi North 13.8 mph - N/A   Mostly Cloudy
5:53 PM 34.0 °F - 24.1 °F 67% 30.15 in 10.0 mi North - - N/A   Overcast
6:53 PM 33.1 °F 22.2 °F 26.1 °F 75% 30.12 in 10.0 mi North 17.3 mph - N/A   Overcast
7:53 PM 33.1 °F 23.4 °F 26.1 °F 75% 30.10 in 10.0 mi North 13.8 mph - N/A   Overcast
8:53 PM 34.0 °F 23.4 °F 25.0 °F 70% 30.06 in 10.0 mi North 17.3 mph - N/A   Overcast
9:53 PM 34.0 °F 24.6 °F 25.0 °F 70% 30.07 in 10.0 mi North 13.8 mph - N/A   Overcast
10:53 PM 34.0 °F 25.5 °F 26.1 °F 73% 30.06 in 10.0 mi North 11.5 mph - N/A   Overcast
11:53 PM 34.0 °F 26.6 °F 26.1 °F 73% 30.06 in 10.0 mi North 9.2 mph - N/A   Mostly Cloudy